TimeCDT,TemperatureF,Dew PointF,Humidity,Sea Level PressureIn,VisibilityMPH,Wind Direction,Wind SpeedMPH,Gust SpeedMPH,PrecipitationIn,Events,Conditions,WindDirDegrees,DateUTC
12:06 AM,60.8,57.2,88,30.19,1.8,Calm,Calm,-,N/A,,Clear,0,2013-05-15 05:06:00
12:18 AM,60.8,57.2,88,30.19,3.0,Calm,Calm,-,N/A,,Clear,0,2013-05-15 05:18:00
12:53 AM,59.0,57.0,93,30.19,5.0,Calm,Calm,-,N/A,,Clear,0,2013-05-15 05:53:00
12:59 AM,59.0,57.2,94,30.19,1.8,Calm,Calm,-,N/A,,Clear,0,2013-05-15 05:59:00
1:08 AM,59.0,57.2,94,30.19,3.0,Calm,Calm,-,N/A,,Clear,0,2013-05-15 06:08:00
1:27 AM,57.2,55.4,94,30.18,1.8,Calm,Calm,-,N/A,,Clear,0,2013-05-15 06:27:00
1:37 AM,59.0,57.2,94,30.17,3.0,Calm,Calm,-,N/A,,Clear,0,2013-05-15 06:37:00
1:40 AM,57.2,57.2,100,30.17,1.8,Calm,Calm,-,N/A,,Clear,0,2013-05-15 06:40:00
1:51 AM,57.2,57.2,100,30.17,4.0,Calm,Calm,-,N/A,,Clear,0,2013-05-15 06:51:00
1:53 AM,57.9,57.0,97,30.18,7.0,Calm,Calm,-,N/A,,Clear,0,2013-05-15 06:53:00
2:02 AM,57.2,55.4,94,30.17,0.8,Calm,Calm,-,N/A,,Clear,0,2013-05-15 07:02:00
2:24 AM,57.2,55.4,94,30.17,1.0,Calm,Calm,-,N/A,,Clear,0,2013-05-15 07:24:00
2:30 AM,57.2,55.4,94,30.17,3.0,Calm,Calm,-,N/A,,Clear,0,2013-05-15 07:30:00
2:53 AM,57.0,55.9,96,30.18,7.0,Calm,Calm,-,N/A,,Clear,0,2013-05-15 07:53:00
3:24 AM,57.2,55.4,94,30.18,1.5,Calm,Calm,-,N/A,,Clear,0,2013-05-15 08:24:00
3:34 AM,57.2,55.4,94,30.19,0.8,Calm,Calm,-,N/A,,Clear,0,2013-05-15 08:34:00
3:44 AM,57.2,55.4,94,30.19,1.8,Calm,Calm,-,N/A,,Clear,0,2013-05-15 08:44:00
3:48 AM,57.2,55.4,94,30.19,3.0,Calm,Calm,-,N/A,,Clear,0,2013-05-15 08:48:00
3:53 AM,55.9,55.0,97,30.19,4.0,Calm,Calm,-,N/A,,Clear,0,2013-05-15 08:53:00
3:57 AM,55.4,55.4,100,30.19,1.8,Calm,Calm,-,N/A,,Clear,0,2013-05-15 08:57:00
4:13 AM,57.2,55.4,94,30.19,3.0,Calm,Calm,-,N/A,,Clear,0,2013-05-15 09:13:00
4:53 AM,55.9,55.0,97,30.20,4.0,Calm,Calm,-,N/A,,Clear,0,2013-05-15 09:53:00
5:18 AM,57.2,55.4,94,30.20,1.8,Calm,Calm,-,N/A,,Clear,0,2013-05-15 10:18:00
5:40 AM,55.4,53.6,94,30.21,3.0,Calm,Calm,-,N/A,,Clear,0,2013-05-15 10:40:00
5:44 AM,55.4,53.6,94,30.21,1.8,Calm,Calm,-,N/A,,Clear,0,2013-05-15 10:44:00
5:53 AM,55.9,54.0,93,30.22,1.0,Calm,Calm,-,N/A,,Clear,0,2013-05-15 10:53:00
5:57 AM,55.4,53.6,94,30.21,3.0,Calm,Calm,-,N/A,,Clear,0,2013-05-15 10:57:00
6:53 AM,57.9,57.0,97,30.22,10.0,Calm,Calm,-,N/A,,Clear,0,2013-05-15 11:53:00
7:53 AM,66.9,62.1,84,30.23,10.0,Calm,Calm,-,N/A,,Clear,0,2013-05-15 12:53:00
8:53 AM,73.0,62.1,68,30.23,10.0,NW,4.6,-,N/A,,Clear,320,2013-05-15 13:53:00
9:53 AM,75.9,57.9,54,30.22,10.0,Calm,Calm,-,N/A,,Clear,0,2013-05-15 14:53:00
10:53 AM,79.0,55.9,45,30.22,10.0,Calm,Calm,-,N/A,,Clear,0,2013-05-15 15:53:00
11:53 AM,80.1,59.0,48,30.20,10.0,South,3.5,-,N/A,,Partly Cloudy,190,2013-05-15 16:53:00
12:53 PM,81.0,54.0,39,30.19,10.0,SW,9.2,-,N/A,,Clear,220,2013-05-15 17:53:00
1:53 PM,82.0,53.1,37,30.17,10.0,SSW,6.9,-,N/A,,Clear,200,2013-05-15 18:53:00
2:53 PM,82.0,51.1,34,30.14,10.0,South,9.2,-,N/A,,Clear,190,2013-05-15 19:53:00
3:53 PM,81.0,51.1,35,30.11,10.0,SE,11.5,-,N/A,,Clear,140,2013-05-15 20:53:00
4:53 PM,80.1,48.0,32,30.11,10.0,SSE,12.7,-,N/A,,Clear,160,2013-05-15 21:53:00
5:53 PM,77.0,48.0,36,30.10,10.0,SSW,6.9,-,N/A,,Clear,200,2013-05-15 22:53:00
6:53 PM,73.9,54.0,50,30.09,10.0,South,3.5,-,N/A,,Clear,180,2013-05-15 23:53:00
7:53 PM,70.0,55.9,61,30.07,10.0,SSE,3.5,-,N/A,,Clear,160,2013-05-16 00:53:00
8:53 PM,69.1,57.0,65,30.07,10.0,Calm,Calm,-,N/A,,Clear,0,2013-05-16 01:53:00
9:53 PM,66.9,61.0,81,30.07,10.0,Calm,Calm,-,N/A,,Clear,0,2013-05-16 02:53:00
10:53 PM,66.9,62.1,84,30.06,10.0,Calm,Calm,-,N/A,,Clear,0,2013-05-16 03:53:00
11:53 PM,70.0,63.0,78,30.07,10.0,Calm,Calm,-,N/A,,Clear,0,2013-05-16 04:53:00